Location: Marse
(42.1502°N, 110.9866°W)
Time: 01:44:09
(UTC+00:00)

X-37B - Visible Passes

Search period start: 19 January 2022 00:00
Search period end: 29 January 2022 00:00
Orbit: 334 x 337 km, 45.0° (Epoch: 11 January)

Date Brightness Start Highest point End Pass type
(mag) Time Alt. Az. Time Alt. Az. Time Alt. Az.
26 Jan 2.3 02:06:02 10° SSW 02:07:37 20° S 02:07:37 20° S visible
27 Jan 2.1 02:25:50 10° SW 02:27:26 28° SW 02:27:26 28° SW visible
28 Jan 2.0 01:11:29 10° SSW 01:13:45 22° SSE 01:15:56 11° E visible
28 Jan 3.2 02:46:11 10° WSW 02:47:10 19° W 02:47:10 19° W visible
